Total_Precipitation_Accumulation
0.00 0.00 0.00 0.00 0.00 0.00 0.00 0.00 0.00 0.00 0.00 0.00 0.00 0.00 0.00 0.00 0.00 0.00 0.00 0.00 0.00 0.00 0.00 0.00 0.01 0.02 0.04 0.07 0.10 0.11 0.11 0.12 0.17 0.21 0.20 0.20 0.23 0.27 0.26 0.25 0.28 0.32 0.35
0.00 0.00 0.00 0.00 0.00 0.00 0.00 0.00 0.00 0.00 0.00 0.00 0.00 0.00 0.00 0.00 0.00 0.00 0.00 0.00 0.00 0.00 0.00 0.00 0.00 0.00 0.01 0.01 0.02 0.03 0.05 0.05 0.08 0.15 0.20 0.17 0.15 0.16 0.17 0.18 0.22 0.28 0.35
0.00 0.00 0.00 0.00 0.00 0.00 0.00 0.00 0.00 0.00 0.00 0.00 0.00 0.00 0.00 0.00 0.00 0.00 0.00 0.00 0.00 0.00 0.00 0.00 0.00 0.00 0.01 0.01 0.01 0.02 0.03 0.04 0.04 0.08 0.23 0.32 0.24 0.16 0.12 0.14 0.16 0.19 0.21
0.00 0.00 0.00 0.00 0.00 0.00 0.00 0.00 0.00 0.00 0.00 0.00 0.00 0.00 0.00 0.00 0.00 0.00 0.00 0.00 0.00 0.00 0.00 0.00 0.00 0.01 0.01 0.01 0.01 0.02 0.03 0.05 0.06 0.06 0.11 0.21 0.26 0.32 0.21 0.07 0.06 0.08 0.10
0.00 0.00 0.00 0.00 0.00 0.00 0.00 0.00 0.00 0.00 0.00 0.00 0.00 0.00 0.00 0.00 0.00 0.00 0.00 0.00 0.00 0.00 0.00 0.01 0.01 0.01 0.01 0.01 0.02 0.02 0.03 0.05 0.07 0.10 0.11 0.10 0.11 0.20 0.34 0.16 0.03 0.03 0.05
0.00 0.00 0.00 0.00 0.00 0.00 0.00 0.00 0.00 0.00 0.00 0.00 0.00 0.00 0.00 0.00 0.00 0.00 0.00 0.00 0.00 0.00 0.01 0.01 0.01 0.02 0.02 0.02 0.03 0.04 0.05 0.06 0.08 0.10 0.13 0.18 0.22 0.21 0.29 0.26 0.11 0.05 0.03
0.00 0.00 0.00 0.00 0.00 0.00 0.00 0.00 0.00 0.00 0.00 0.00 0.00 0.00 0.00 0.00 0.00 0.00 0.00 0.00 0.00 0.01 0.01 0.02 0.02 0.03 0.04 0.04 0.05 0.07 0.08 0.09 0.11 0.12 0.14 0.16 0.19 0.22 0.27 0.31 0.21 0.11 0.05
0.00 0.00 0.00 0.00 0.00 0.00 0.00 0.00 0.00 0.00 0.00 0.00 0.00 0.00 0.00 0.01 0.00 0.00 0.00 0.01 0.01 0.01 0.02 0.03 0.04 0.05 0.06 0.07 0.09 0.11 0.12 0.13 0.15 0.15 0.16 0.18 0.17 0.19 0.25 0.33 0.37 0.28 0.11
0.00 0.00 0.00 0.00 0.00 0.00 0.00 0.00 0.00 0.00 0.00 0.00 0.00 0.00 0.00 0.00 0.00 0.00 0.01 0.01 0.02 0.03 0.04 0.06 0.08 0.10 0.11 0.12 0.13 0.15 0.17 0.18 0.20 0.21 0.21 0.23 0.21 0.21 0.22 0.27 0.38 0.51 0.37
0.00 0.00 0.00 0.00 0.00 0.00 0.00 0.00 0.00 0.00 0.01 0.00 0.01 0.01 0.01 0.01 0.01 0.01 0.02 0.03 0.04 0.05 0.06 0.07 0.10 0.13 0.15 0.17 0.19 0.21 0.22 0.25 0.28 0.29 0.29 0.29 0.28 0.28 0.27 0.27 0.29 0.39 0.50
0.00 0.00 0.00 0.00 0.00 0.00 0.00 0.00 0.01 0.01 0.01 0.01 0.01 0.02 0.02 0.03 0.03 0.04 0.05 0.07 0.08 0.09 0.09 0.09 0.10 0.12 0.14 0.17 0.21 0.25 0.29 0.33 0.33 0.34 0.36 0.37 0.37 0.37 0.35 0.34 0.34 0.35 0.46
0.00 0.00 0.00 0.00 0.00 0.00 0.00 0.01 0.02 0.03 0.04 0.03 0.03 0.04 0.04 0.06 0.09 0.11 0.12 0.13 0.14 0.14 0.14 0.13 0.13 0.13 0.14 0.16 0.19 0.22 0.26 0.33 0.37 0.39 0.42 0.43 0.43 0.45 0.44 0.44 0.42 0.39 0.41
0.00 0.00 0.00 0.00 0.00 0.01 0.01 0.02 0.03 0.05 0.04 0.04 0.05 0.06 0.09 0.12 0.16 0.19 0.20 0.20 0.20 0.20 0.19 0.19 0.20 0.20 0.23 0.27 0.28 0.26 0.28 0.31 0.34 0.36 0.41 0.46 0.51 0.54 0.52 0.52 0.49 0.44 0.38
0.00 0.00 0.00 0.00 0.01 0.01 0.02 0.03 0.05 0.06 0.07 0.09 0.11 0.14 0.18 0.22 0.25 0.26 0.25 0.23 0.23 0.24 0.24 0.24 0.26 0.29 0.37 0.51 0.54 0.43 0.39 0.36 0.36 0.36 0.39 0.45 0.52 0.59 0.64 0.67 0.58 0.50 0.46
0.00 0.01 0.01 0.01 0.02 0.02 0.03 0.06 0.09 0.12 0.16 0.20 0.23 0.23 0.22 0.22 0.22 0.22 0.22 0.23 0.25 0.26 0.26 0.24 0.26 0.32 0.46 0.78 0.81 0.64 0.50 0.43 0.41 0.39 0.40 0.43 0.54 0.68 0.81 0.87 0.78 0.67 0.57
0.01 0.01 0.02 0.03 0.04 0.06 0.09 0.14 0.20 0.23 0.25 0.27 0.27 0.25 0.22 0.21 0.21 0.22 0.22 0.23 0.23 0.21 0.18 0.17 0.21 0.30 0.47 0.85 0.90 0.71 0.49 0.43 0.43 0.43 0.39 0.37 0.41 0.47 0.56 0.68 0.68 0.67 0.63
0.03 0.04 0.05 0.07 0.09 0.13 0.18 0.22 0.24 0.24 0.26 0.28 0.28 0.26 0.24 0.23 0.21 0.20 0.18 0.18 0.16 0.13 0.10 0.09 0.11 0.18 0.34 0.70 0.78 0.63 0.41 0.33 0.35 0.34 0.29 0.27 0.28 0.28 0.27 0.32 0.31 0.34 0.44
0.07 0.09 0.11 0.12 0.15 0.20 0.24 0.27 0.26 0.26 0.26 0.25 0.23 0.19 0.16 0.15 0.14 0.14 0.13 0.11 0.09 0.08 0.06 0.05 0.04 0.06 0.14 0.47 0.69 0.52 0.26 0.23 0.26 0.26 0.28 0.27 0.26 0.24 0.25 0.28 0.27 0.25 0.29
0.07 0.08 0.08 0.09 0.13 0.19 0.22 0.23 0.21 0.20 0.17 0.15 0.12 0.09 0.07 0.07 0.08 0.08 0.07 0.05 0.04 0.04 0.03 0.02 0.02 0.02 0.06 0.27 0.61 0.55 0.20 0.18 0.20 0.24 0.33 0.34 0.30 0.27 0.26 0.29 0.29 0.24 0.24
0.04 0.04 0.04 0.04 0.07 0.10 0.12 0.12 0.12 0.10 0.09 0.07 0.05 0.03 0.02 0.03 0.04 0.04 0.03 0.02 0.02 0.02 0.01 0.01 0.01 0.01 0.03 0.15 0.50 0.67 0.27 0.20 0.18 0.20 0.30 0.47 0.41 0.32 0.24 0.23 0.21 0.19 0.21
0.03 0.02 0.02 0.04 0.07 0.10 0.11 0.10 0.08 0.05 0.03 0.02 0.01 0.01 0.00 0.01 0.01 0.01 0.01 0.02 0.02 0.02 0.01 0.01 0.01 0.01 0.01 0.05 0.29 0.66 0.52 0.31 0.20 0.20 0.30 0.46 0.39 0.28 0.20 0.15 0.14 0.19 0.19
0.02 0.02 0.03 0.05 0.10 0.12 0.10 0.06 0.04 0.01 0.00 0.00 0.00 0.00 0.00 0.01 0.01 0.01 0.01 0.01 0.02 0.02 0.02 0.02 0.02 0.01 0.01 0.04 0.18 0.41 0.51 0.39 0.19 0.21 0.24 0.32 0.29 0.21 0.14 0.09 0.09 0.10 0.07
0.02 0.04 0.05 0.08 0.11 0.09 0.05 0.02 0.01 0.00 0.00 0.00 0.00 0.00 0.01 0.01 0.01 0.01 0.02 0.02 0.02 0.04 0.06 0.05 0.04 0.02 0.02 0.04 0.15 0.22 0.22 0.23 0.16 0.25 0.38 0.28 0.17 0.10 0.06 0.03 0.03 0.03 0.02
0.05 0.06 0.07 0.09 0.10 0.06 0.02 0.00 0.00 0.00 0.00 0.00 0.01 0.01 0.01 0.01 0.01 0.02 0.02 0.03 0.04 0.13 0.19 0.14 0.10 0.05 0.04 0.13 0.29 0.27 0.14 0.12 0.12 0.13 0.21 0.17 0.07 0.02 0.01 0.01 0.01 0.01 0.02
0.07 0.08 0.09 0.09 0.07 0.03 0.01 0.00 0.00 0.00 0.00 0.00 0.01 0.01 0.01 0.01 0.02 0.02 0.02 0.03 0.05 0.19 0.32 0.25 0.22 0.19 0.20 0.35 0.51 0.41 0.29 0.28 0.24 0.16 0.10 0.06 0.03 0.02 0.01 0.01 0.01 0.01 0.01
0.11 0.11 0.09 0.05 0.02 0.01 0.00 0.00 0.00 0.00 0.00 0.01 0.01 0.02 0.02 0.02 0.02 0.02 0.02 0.03 0.04 0.09 0.11 0.14 0.21 0.21 0.30 0.40 0.33 0.27 0.24 0.23 0.20 0.11 0.07 0.05 0.04 0.03 0.03 0.02 0.01 0.01 0.02